Weather History for Valdosta, GA

Change the Weather History Date:

Saturday, April 26, 2014

  Actual Average Record
Temperature  
Mean Temperature 72 °F -  
Max Temperature 85 °F 78 °F 89 °F (2011)
Min Temperature 60 °F 58 °F 51 °F (2001)
Cooling Degree Days 7    
Growing Degree Days 22 (Base 50)    
Moisture  
Dew Point 62 °F    
Average Humidity 85    
Maximum Humidity 100    
Minimum Humidity 38    
Precipitation  
Precipitation 0.00 in - - ()
Sea Level Pressure  
Sea Level Pressure 29.97 in    
Wind  
Wind Speed 3 mph (NW)    
Max Wind Speed 8 mph    
Max Gust Speed -    
Visibility 5 miles    
Events Fog , Rain    
Averages and records for this station are not official NWS values.
T = Trace of Precipitation, MM = Missing Value Source: NWS Daily Summary

Daily Weather History Graph

Daily Weather History Graph

Search for Another Location

Airport:

Trip Planner

Search our weather history database for the weather conditions in past years. The results will help you decide how hot, cold, wet, or windy it might be!

Date:

Astronomy

Apr. 26, 2014 Rise Set
Actual Time 6:53 AM EDT 8:08 PM EDT
Civil Twilight 6:27 AM EDT 8:33 PM EDT
Nautical Twilight 5:57 AM EDT 9:03 PM EDT
Astronomical Twilight 5:26 AM EDT 9:35 PM EDT
Moon 5:04 AM EDT (4/26) 5:45 PM EDT (4/26)
Length of Visible Light 14h 05m
Length of Day
13h 15m
Waning Crescent, 8% of the Moon is Illuminated
Apr 26
Waning Crescent
Apr 29
New
May 6
First Quarter
May 14
Full
May 21
Last Quarter

Hourly Weather History & Observations

Time (EDT) Temp. Heat Index Dew Point Humidity Pressure Visibility Wind Dir Wind Speed Gust Speed Precip Events Conditions
12:58 AM 70.3 °F - 69.6 °F 98% 29.96 in 10.0 mi WSW 5.8 mph - N/A   Clear
1:58 AM 68.5 °F - 68.5 °F 100% 29.94 in 10.0 mi WSW 6.9 mph - N/A   Clear
2:58 AM 67.6 °F - 67.6 °F 100% 29.94 in 10.0 mi West 4.6 mph - N/A   Clear
3:58 AM 66.4 °F - 66.4 °F 100% 29.94 in 10.0 mi WSW 2.3 mph - N/A   Clear
4:10 AM 64.4 °F - 64.4 °F 100% 29.94 in 9.0 mi Calm Calm - N/A   Clear
4:16 AM 64.4 °F - 64.4 °F 100% 29.93 in 7.0 mi Calm Calm - N/A   Clear
4:28 AM 64.4 °F - 64.4 °F 100% 29.93 in 3.0 mi Calm Calm - N/A   Clear
4:30 AM 64.4 °F - 64.4 °F 100% 29.93 in 2.5 mi Calm Calm - N/A   Clear
4:32 AM 64.4 °F - 64.4 °F 100% 29.93 in 2.0 mi NNW 1.2 mph - N/A   Clear
4:34 AM 64.4 °F - 64.4 °F 100% 29.93 in 1.5 mi NW 1.2 mph - N/A   Clear
4:38 AM 64.4 °F - 64.4 °F 100% 29.94 in 2.0 mi WNW 2.3 mph - N/A   Clear
4:42 AM 64.4 °F - 64.4 °F 100% 29.94 in 2.5 mi West 2.3 mph - N/A   Clear
4:44 AM 64.4 °F - 64.4 °F 100% 29.94 in 4.0 mi West 1.2 mph - N/A   Clear
4:48 AM 64.4 °F - 64.4 °F 100% 29.94 in 5.0 mi WSW 2.3 mph - N/A   Clear
4:56 AM 62.6 °F - 62.6 °F 100% 29.94 in 5.0 mi NW 1.2 mph - N/A   Clear
4:58 AM 62.8 °F - 62.8 °F 100% 29.94 in 4.0 mi Calm Calm - N/A   Clear
5:04 AM 62.6 °F - 62.6 °F 100% 29.94 in 5.0 mi WNW 3.5 mph - N/A   Clear
5:26 AM 62.6 °F - 62.6 °F 100% 29.95 in 5.0 mi WNW 1.2 mph - N/A   Clear
5:28 AM 62.6 °F - 62.6 °F 100% 29.95 in 2.5 mi Calm Calm - N/A   Clear
5:30 AM 62.6 °F - 62.6 °F 100% 29.95 in 1.2 mi Calm Calm - N/A   Clear
5:32 AM 60.8 °F - 60.8 °F 100% 29.95 in 0.8 mi Calm Calm - N/A   Clear
5:34 AM 60.8 °F - 60.8 °F 100% 29.95 in 0.8 mi Calm Calm - N/A   Clear
5:36 AM 60.8 °F - 60.8 °F 100% 29.95 in 0.8 mi Calm Calm - N/A   Clear
5:44 AM 62.6 °F - 62.6 °F 100% 29.95 in 0.5 mi Calm Calm - N/A Fog Fog
5:48 AM 62.6 °F - 62.6 °F 100% 29.95 in 0.2 mi North 1.2 mph - N/A Fog Fog
5:58 AM 62.2 °F - 62.2 °F 100% 29.96 in 0.2 mi NNW 2.3 mph - N/A Fog Fog
6:14 AM 62.6 °F - 62.6 °F 100% 29.96 in 0.2 mi NNW 2.3 mph - N/A Fog Fog
6:58 AM 61.0 °F - 61.0 °F 100% 29.98 in 0.2 mi North 4.6 mph - N/A Fog Fog
7:42 AM 62.6 °F - 62.6 °F 100% 30.00 in 0.2 mi North 2.3 mph - N/A Fog Fog
7:44 AM 62.6 °F - 62.6 °F 100% 30.00 in 0.5 mi North 1.2 mph - N/A Fog Fog
7:46 AM 62.6 °F - 62.6 °F 100% 30.00 in 0.8 mi Calm Calm - N/A   Mist
7:48 AM 62.6 °F - 62.6 °F 100% 30.00 in 1.2 mi NNW 2.3 mph - N/A   Partly Cloudy
7:50 AM 62.6 °F - 62.6 °F 100% 30.00 in 2.5 mi North 2.3 mph - N/A   Partly Cloudy
7:52 AM 62.6 °F - 62.6 °F 100% 30.00 in 4.0 mi North 1.2 mph - N/A   Partly Cloudy
7:58 AM 63.7 °F - 63.7 °F 100% 30.01 in 7.0 mi North 2.3 mph - N/A   Clear
8:58 AM 67.3 °F - 67.3 °F 100% 30.02 in 10.0 mi NNE 5.8 mph - N/A   Clear
9:58 AM 73.4 °F - 58.1 °F 59% 30.02 in 10.0 mi East 8.1 mph - N/A   Clear
10:58 AM 76.6 °F - 57.6 °F 52% 30.04 in 10.0 mi ENE 5.8 mph - N/A   Clear
11:44 AM 78.8 °F - 59.0 °F 51% 30.03 in 2.5 mi East 4.6 mph - N/A   Haze
11:56 AM 78.8 °F - 59.0 °F 51% 30.04 in 3.0 mi Variable 1.2 mph - N/A   Haze
11:58 AM 79.2 °F - 58.5 °F 49% 30.04 in 4.0 mi Variable 1.2 mph - N/A   Haze
12:58 PM 81.0 °F 81.0 °F 57.2 °F 44% 30.02 in 10.0 mi Variable 2.3 mph - N/A   Partly Cloudy
1:58 PM 82.6 °F 82.1 °F 56.8 °F 41% 30.00 in 10.0 mi Variable 4.6 mph - N/A   Mostly Cloudy
2:58 PM 83.7 °F 83.0 °F 56.7 °F 40% 29.99 in 10.0 mi Calm Calm - N/A   Scattered Clouds
3:58 PM 84.2 °F 83.3 °F 57.0 °F 39% 29.97 in 10.0 mi WNW 5.8 mph - N/A   Partly Cloudy
4:58 PM 84.7 °F 83.7 °F 56.7 °F 38% 29.96 in 10.0 mi Variable 4.6 mph - N/A   Clear
5:58 PM 84.7 °F 83.7 °F 56.7 °F 38% 29.96 in 10.0 mi West 6.9 mph - N/A   Clear
6:58 PM 83.5 °F 82.8 °F 56.5 °F 40% 29.96 in 10.0 mi WSW 5.8 mph - N/A   Clear
7:58 PM 80.4 °F 80.8 °F 57.9 °F 46% 29.96 in 10.0 mi West 2.3 mph - N/A   Partly Cloudy
8:58 PM 72.0 °F - 61.0 °F 68% 29.98 in 10.0 mi SE 2.3 mph - 0.00 in Rain Light Rain
9:01 PM 71.6 °F - 60.8 °F 69% 29.98 in 10.0 mi East 1.2 mph - N/A   Clear
9:58 PM 69.8 °F - 61.9 °F 76% 29.99 in 10.0 mi Calm Calm - 0.00 in   Clear
10:58 PM 68.4 °F - 64.0 °F 86% 30.01 in 10.0 mi South 2.3 mph - N/A   Clear
11:58 PM 67.5 °F - 62.4 °F 84% 30.01 in 10.0 mi Calm Calm - 0.00 in   Clear